TimeCDT,TemperatureF,Dew PointF,Humidity,Sea Level PressureIn,VisibilityMPH,Wind Direction,Wind SpeedMPH,Gust SpeedMPH,PrecipitationIn,Events,Conditions,WindDirDegrees,DateUTC
12:15 AM,50.7,44.1,78,30.30,10.0,SW,6.9,-,N/A,,Overcast,230,2013-04-27 05:15:00
12:35 AM,50.7,43.7,77,30.30,10.0,SW,8.1,-,N/A,,Mostly Cloudy,230,2013-04-27 05:35:00
12:55 AM,49.8,43.7,79,30.30,10.0,SW,8.1,-,N/A,,Mostly Cloudy,220,2013-04-27 05:55:00
1:15 AM,49.1,43.3,81,30.30,10.0,SW,6.9,-,N/A,,Scattered Clouds,220,2013-04-27 06:15:00
1:35 AM,47.1,42.4,84,30.29,10.0,SSW,5.8,-,N/A,,Clear,210,2013-04-27 06:35:00
1:55 AM,45.5,42.1,88,30.29,10.0,SSW,5.8,-,N/A,,Clear,200,2013-04-27 06:55:00
2:15 AM,46.4,42.8,87,30.28,10.0,SSW,5.8,-,N/A,,Clear,210,2013-04-27 07:15:00
2:35 AM,47.3,42.8,84,30.28,10.0,SSW,4.6,-,N/A,,Clear,210,2013-04-27 07:35:00
2:55 AM,47.5,42.6,83,30.28,10.0,SSW,3.5,-,N/A,,Clear,200,2013-04-27 07:55:00
3:15 AM,46.8,42.8,86,30.28,10.0,South,3.5,-,N/A,,Clear,190,2013-04-27 08:15:00
3:35 AM,46.0,43.3,90,30.27,10.0,SSW,3.5,-,N/A,,Clear,200,2013-04-27 08:35:00
3:55 AM,45.9,42.8,89,30.27,10.0,South,3.5,-,N/A,,Clear,180,2013-04-27 08:55:00
4:15 AM,45.3,42.8,91,30.27,10.0,South,4.6,-,N/A,,Clear,180,2013-04-27 09:15:00
4:35 AM,45.5,43.0,91,30.27,10.0,SSE,4.6,-,N/A,,Clear,160,2013-04-27 09:35:00
4:55 AM,44.6,43.0,94,30.27,10.0,SE,4.6,-,N/A,,Clear,140,2013-04-27 09:55:00
5:15 AM,43.3,42.1,95,30.26,7.0,SE,4.6,-,N/A,,Clear,140,2013-04-27 10:15:00
6:15 AM,41.2,40.3,97,30.26,4.0,SSE,4.6,-,N/A,,Clear,150,2013-04-27 11:15:00
6:35 AM,41.0,41.0,100,30.26,5.0,SE,4.6,-,N/A,,Clear,140,2013-04-27 11:35:00
6:55 AM,44.4,43.3,96,30.26,5.0,SSE,6.9,-,N/A,,Clear,150,2013-04-27 11:55:00
7:15 AM,46.0,43.9,92,30.27,7.0,SSE,5.8,-,N/A,,Clear,150,2013-04-27 12:15:00
7:35 AM,48.0,44.8,89,30.27,7.0,SSE,5.8,-,N/A,,Clear,160,2013-04-27 12:35:00
7:55 AM,49.6,45.3,85,30.27,10.0,SSE,4.6,-,N/A,,Clear,150,2013-04-27 12:55:00
8:15 AM,51.1,45.1,80,30.26,10.0,SSE,3.5,-,N/A,,Clear,160,2013-04-27 13:15:00
8:35 AM,52.7,45.5,76,30.25,10.0,SSE,3.5,-,N/A,,Clear,150,2013-04-27 13:35:00
8:55 AM,54.5,46.0,73,30.25,10.0,SSE,3.5,-,N/A,,Clear,160,2013-04-27 13:55:00
9:15 AM,55.8,45.5,68,30.24,10.0,SSE,4.6,-,N/A,,Clear,150,2013-04-27 14:15:00
9:35 AM,57.2,44.6,63,30.23,10.0,SSE,6.9,-,N/A,,Clear,150,2013-04-27 14:35:00
9:55 AM,58.1,44.1,60,30.23,10.0,SSE,8.1,-,N/A,,Clear,160,2013-04-27 14:55:00
10:15 AM,59.4,44.1,57,30.22,10.0,SSE,6.9,-,N/A,,Clear,160,2013-04-27 15:15:00
10:35 AM,59.7,43.5,55,30.22,10.0,SSE,8.1,-,N/A,,Clear,160,2013-04-27 15:35:00
10:55 AM,60.8,43.5,53,30.22,10.0,SSE,9.2,-,N/A,,Clear,150,2013-04-27 15:55:00
11:15 AM,61.7,43.7,52,30.22,10.0,South,10.4,-,N/A,,Clear,170,2013-04-27 16:15:00
11:35 AM,61.7,42.4,49,30.22,10.0,South,11.5,-,N/A,,Clear,170,2013-04-27 16:35:00
11:55 AM,62.4,40.3,44,30.21,10.0,SSE,15.0,-,N/A,,Clear,160,2013-04-27 16:55:00
12:15 PM,63.0,41.0,45,30.21,10.0,SSE,12.7,-,N/A,,Clear,150,2013-04-27 17:15:00
12:35 PM,63.5,41.5,45,30.19,10.0,SSE,13.8,19.6,N/A,,Clear,160,2013-04-27 17:35:00
12:55 PM,64.2,41.0,43,30.18,10.0,SSE,15.0,20.7,N/A,,Clear,150,2013-04-27 17:55:00
1:15 PM,65.1,39.7,39,30.17,10.0,South,10.4,19.6,N/A,,Clear,180,2013-04-27 18:15:00
1:35 PM,66.2,37.6,35,30.16,10.0,South,17.3,21.9,N/A,,Clear,170,2013-04-27 18:35:00
1:55 PM,66.4,37.9,35,30.15,10.0,SSE,13.8,18.4,N/A,,Clear,160,2013-04-27 18:55:00
2:15 PM,66.4,36.0,33,30.14,10.0,SSE,12.7,19.6,N/A,,Scattered Clouds,150,2013-04-27 19:15:00
2:35 PM,66.6,35.6,32,30.13,10.0,SSE,12.7,19.6,N/A,,Scattered Clouds,160,2013-04-27 19:35:00
2:55 PM,66.4,35.2,32,30.12,10.0,South,11.5,18.4,N/A,,Mostly Cloudy,170,2013-04-27 19:55:00
3:15 PM,66.6,34.9,31,30.11,10.0,SSE,9.2,-,N/A,,Scattered Clouds,160,2013-04-27 20:15:00
3:35 PM,67.5,37.2,33,30.10,10.0,SSE,10.4,17.3,N/A,,Mostly Cloudy,160,2013-04-27 20:35:00
3:55 PM,67.6,38.7,35,30.09,10.0,SSE,11.5,16.1,N/A,,Mostly Cloudy,150,2013-04-27 20:55:00
4:15 PM,66.6,38.3,35,30.09,10.0,SSE,8.1,17.3,N/A,,Scattered Clouds,160,2013-04-27 21:15:00
4:35 PM,66.6,38.5,36,30.08,10.0,SE,8.1,-,N/A,,Overcast,140,2013-04-27 21:35:00
4:55 PM,66.2,39.9,38,30.08,10.0,SSE,11.5,-,N/A,,Overcast,160,2013-04-27 21:55:00
5:15 PM,65.5,39.4,38,30.07,10.0,SE,11.5,-,N/A,,Overcast,130,2013-04-27 22:15:00
5:35 PM,64.4,41.0,42,30.07,10.0,SSE,10.4,-,N/A,,Overcast,150,2013-04-27 22:35:00
5:55 PM,64.8,40.8,42,30.06,10.0,SSE,9.2,16.1,N/A,,Overcast,150,2013-04-27 22:55:00
6:15 PM,63.9,39.9,41,30.06,10.0,SSE,9.2,-,N/A,,Overcast,160,2013-04-27 23:15:00
6:35 PM,63.5,39.9,42,30.06,10.0,SSE,9.2,-,N/A,,Overcast,150,2013-04-27 23:35:00
6:55 PM,62.8,40.3,44,30.05,10.0,SSE,11.5,-,N/A,,Overcast,150,2013-04-27 23:55:00
7:15 PM,62.6,40.8,45,30.05,10.0,SE,9.2,-,N/A,,Overcast,140,2013-04-28 00:15:00
7:35 PM,61.5,41.7,48,30.05,10.0,SE,6.9,-,N/A,,Overcast,140,2013-04-28 00:35:00
7:55 PM,60.6,43.3,53,30.05,10.0,South,10.4,-,N/A,,Overcast,180,2013-04-28 00:55:00
8:15 PM,59.7,44.2,57,30.05,10.0,South,10.4,-,N/A,,Overcast,180,2013-04-28 01:15:00
8:35 PM,59.5,44.2,57,30.05,10.0,SSE,3.5,-,N/A,,Overcast,160,2013-04-28 01:35:00
8:55 PM,58.6,44.6,60,30.05,10.0,ESE,4.6,-,N/A,,Overcast,120,2013-04-28 01:55:00
9:15 PM,58.1,41.2,53,30.04,10.0,East,5.8,-,N/A,,Overcast,90,2013-04-28 02:15:00
9:35 PM,57.4,41.0,54,30.04,10.0,East,5.8,-,N/A,,Overcast,90,2013-04-28 02:35:00
9:55 PM,57.0,41.7,57,30.03,10.0,East,5.8,-,N/A,,Overcast,90,2013-04-28 02:55:00
10:15 PM,56.5,42.3,59,30.03,10.0,ESE,4.6,-,N/A,,Overcast,110,2013-04-28 03:15:00
10:35 PM,56.3,43.3,62,30.02,10.0,East,5.8,-,N/A,,Overcast,100,2013-04-28 03:35:00
10:55 PM,55.9,43.0,62,30.02,10.0,East,4.6,-,N/A,,Overcast,100,2013-04-28 03:55:00
11:15 PM,55.4,43.7,65,30.01,10.0,ESE,4.6,-,N/A,,Overcast,120,2013-04-28 04:15:00
11:35 PM,55.4,46.4,72,30.01,10.0,SE,6.9,-,N/A,,Light Drizzle,130,2013-04-28 04:35:00
11:55 PM,54.5,49.1,82,30.00,10.0,SSE,6.9,-,N/A,Rain,Light Rain,150,2013-04-28 04:55:00